Date String (YYYY-MM-DD hh:mm:ss) UTC,Instrument flags,absolute air pressure of the measurement (hPa),sample flow rate (lpm),inlet stack bypass flow (lpm),air temperature of the measurement (°C),ambient temperature measured by the external sensor (°C),aerosol sample conditioner tube jacket temperature (°C),OPC LED temperature (°C),internal box temperature (°C),relative humidity of the measurement (%),span deviation,mass concentration of particles derived from Lorenz-Mie calculation of OPC scattering (μg/m³),mass concentration of particles derived from Lorenz-Mie calculation of OPC scattering (μg/m³),mass concentration of particles derived from Lorenz-Mie calculation of OPC scattering (μg/m³)
DateTimeUTC,F1_M11,P_M11,Q1_M11,Q2_M11,T1_M11,T2_M11,T3_M11,T4_M11,T5_M11,U1_M11,ZSPAN_M11,X0_M11,X2_M11,X1_M11
2023-12-20 17:00:00,SystemResetWarning,0830.1,4.99,000.00,024.4,023.7,000.0,032.6,025.9,16.0,0000.0,0004.56,0001.65,0001.13
2023-12-20 17:01:00,SystemResetWarning,0830.1,4.99,000.00,024.4,023.7,000.0,032.6,025.9,16.1,0000.0,0004.96,0001.73,0001.16
2023-12-20 17:02:00,SystemResetWarning,0830.1,5.01,000.00,024.4,023.7,000.0,032.6,025.9,16.3,0000.0,0005.39,0001.76,0001.19
2023-12-20 17:03:00,SystemResetWarning,0830.1,5.01,000.00,024.4,023.7,000.0,032.6,025.9,16.5,0000.0,0005.43,0001.79,0001.20
2023-12-20 17:04:00,SystemResetWarning,0830.2,5.01,000.00,024.4,023.8,000.0,032.7,025.9,16.5,0000.0,0005.53,0001.79,0001.20
2023-12-20 17:05:00,SystemResetWarning,0830.1,5.00,000.00,024.4,023.8,000.0,032.7,025.9,16.4,0000.0,0005.62,0001.78,0001.20
2023-12-20 17:06:00,SystemResetWarning,0830.1,5.00,000.00,024.5,023.7,000.0,032.7,025.9,16.4,0000.0,0005.35,0001.75,0001.19
2023-12-20 17:07:00,SystemResetWarning,0830.1,5.00,000.00,024.5,023.7,000.0,032.7,025.9,16.4,0000.0,0004.68,0001.68,0001.16
2023-12-20 17:08:00,SystemResetWarning,0830.1,5.00,000.00,024.4,023.7,000.0,032.7,025.9,15.9,0000.0,0004.04,0001.66,0001.13
2023-12-20 17:09:00,SystemResetWarning,0830.1,5.00,000.00,024.5,023.7,000.0,032.7,025.9,16.2,0000.0,0003.85,0001.62,0001.11
2023-12-20 17:10:00,SystemResetWarning,0830.1,5.00,000.00,024.5,023.8,000.0,032.7,025.9,15.8,0000.0,0003.73,0001.59,0001.09
2023-12-20 17:11:00,SystemResetWarning,0830.1,5.00,000.00,024.5,023.8,000.0,032.7,025.9,14.5,0000.0,0003.75,0001.59,0001.08
2023-12-20 17:12:00,SystemResetWarning,0830.1,5.01,000.00,024.5,023.8,000.0,032.7,025.9,14.7,0000.0,0003.45,0001.56,0001.07
2023-12-20 17:13:00,SystemResetWarning,0830.1,5.01,000.00,024.5,023.8,000.0,032.7,025.9,14.5,0000.0,0003.29,0001.58,0001.07
2023-12-20 17:14:00,SystemResetWarning,0830.1,4.99,000.00,024.5,023.8,000.0,032.7,025.9,14.0,0000.0,0003.36,0001.62,0001.07
2023-12-20 17:15:00,SystemResetWarning,0830.1,4.99,000.00,024.5,023.8,000.0,032.7,026.0,13.8,0000.0,0003.71,0001.69,0001.07
2023-12-20 17:16:00,SystemResetWarning,0830.1,4.99,000.00,024.5,023.8,000.0,032.7,026.0,13.9,0000.0,0004.25,0001.71,0001.08
2023-12-20 17:17:00,SystemResetWarning,0830.1,5.01,000.00,024.5,023.8,000.0,032.7,026.0,13.2,0000.0,0004.38,0001.76,0001.08
2023-12-20 17:18:00,SystemResetWarning,0830.1,5.01,000.00,024.5,023.9,000.0,032.7,026.0,13.3,0000.0,0004.49,0001.78,0001.09
2023-12-20 17:19:00,SystemResetWarning,0830.1,4.98,000.00,024.6,023.9,000.0,032.8,026.0,13.1,0000.0,0004.46,0001.73,0001.08
2023-12-20 17:20:00,SystemResetWarning,0830.1,4.99,000.00,024.6,023.9,000.0,032.8,026.0,13.5,0000.0,0004.40,0001.69,0001.08
2023-12-20 17:21:00,SystemResetWarning,0830.1,5.02,000.00,024.6,023.9,000.0,032.8,026.0,12.9,0000.0,0004.49,0001.71,0001.06
2023-12-20 17:22:00,SystemResetWarning,0830.1,5.01,000.00,024.6,023.9,000.0,032.8,026.0,13.0,0000.0,0004.91,0001.66,0001.04
2023-12-20 17:23:00,SystemResetWarning,0830.1,4.99,000.00,024.6,023.9,000.0,032.8,026.0,13.2,0000.0,0005.02,0001.61,0001.02
2023-12-20 17:24:00,SystemResetWarning,0830.0,5.00,000.00,024.6,023.9,000.0,032.8,026.0,13.9,0000.0,0004.94,0001.58,0001.01
2023-12-20 17:25:00,SystemResetWarning,0830.0,5.01,000.00,024.6,023.9,000.0,032.8,026.0,13.6,0000.0,0004.50,0001.51,0001.00
2023-12-20 17:26:00,SystemResetWarning,0830.0,5.00,000.00,024.6,023.9,000.0,032.8,026.1,12.3,0000.0,0004.19,0001.49,0000.99
2023-12-20 17:27:00,SystemResetWarning,0830.1,4.99,000.00,024.6,023.9,000.0,032.8,026.1,12.3,0000.0,0003.62,0001.51,0000.99
2023-12-20 17:28:00,SystemResetWarning,0830.1,5.00,000.00,024.7,023.9,000.0,032.8,026.1,13.0,0000.0,0003.36,0001.47,0000.99
2023-12-20 17:29:00,SystemResetWarning,0830.0,5.00,000.00,024.7,023.9,000.0,032.8,026.1,13.3,0000.0,0003.24,0001.44,0000.98
2023-12-20 17:30:00,SystemResetWarning,0830.0,5.01,000.00,024.7,023.9,000.0,032.8,026.1,12.8,0000.0,0003.19,0001.44,0000.98
2023-12-20 17:31:00,SystemResetWarning,0830.1,5.00,000.00,024.7,023.9,000.0,032.9,026.1,12.6,0000.0,0003.18,0001.43,0000.97
2023-12-20 17:32:00,SystemResetWarning,0830.0,5.00,000.00,024.7,024.0,000.0,032.9,026.1,12.2,0000.0,0003.15,0001.42,0000.96
2023-12-20 17:33:00,SystemResetWarning,0830.1,4.99,000.00,024.7,024.0,000.0,032.9,026.1,12.0,0000.0,0002.69,0001.42,0000.96
2023-12-20 17:34:00,SystemResetWarning,0830.0,5.00,000.00,024.7,024.0,000.0,032.9,026.1,12.1,0000.0,0002.31,0001.42,0000.96
2023-12-20 17:35:00,SystemResetWarning,0830.0,5.01,000.00,024.7,024.0,000.0,032.9,026.1,11.9,0000.0,0002.20,0001.37,0000.96
2023-12-20 17:36:00,SystemResetWarning,0830.0,5.00,000.00,024.7,024.0,000.0,032.9,026.1,12.2,0000.0,0002.99,0001.36,0000.96
2023-12-20 17:37:00,SystemResetWarning,0830.0,4.98,000.00,024.7,024.0,000.0,032.9,026.1,12.4,0000.0,0003.30,0001.33,0000.96
2023-12-20 17:38:00,SystemResetWarning,0830.1,5.01,000.00,024.7,024.0,000.0,032.9,026.2,12.6,0000.0,0003.23,0001.28,0000.96
2023-12-20 17:39:00,SystemResetWarning,0830.0,5.01,000.00,024.7,024.0,000.0,032.9,026.2,12.1,0000.0,0003.34,0001.29,0000.95
2023-12-20 17:40:00,SystemResetWarning,0830.1,5.00,000.00,024.8,024.0,000.0,032.9,026.2,12.0,0000.0,0003.51,0001.32,0000.94
2023-12-20 17:41:00,SystemResetWarning,0830.0,4.99,000.00,024.8,024.1,000.0,032.9,026.2,12.2,0000.0,0003.69,0001.40,0000.95
2023-12-20 17:42:00,SystemResetWarning,0830.0,4.99,000.00,024.8,024.1,000.0,033.0,026.2,12.3,0000.0,0003.68,0001.40,0000.96
2023-12-20 17:43:00,SystemResetWarning,0830.1,5.01,000.00,024.8,024.1,000.0,033.0,026.3,11.4,0000.0,0003.78,0001.37,0000.97
2023-12-20 17:44:00,SystemResetWarning,0830.0,5.01,000.00,024.8,024.1,000.0,033.0,026.3,11.4,0000.0,0003.86,0001.40,0000.99
2023-12-20 17:45:00,SystemResetWarning,0830.0,5.01,000.00,024.8,024.1,000.0,033.0,026.3,11.5,0000.0,0005.67,0001.47,0001.01
2023-12-20 17:46:00,SystemResetWarning,0830.0,4.98,000.00,024.9,024.1,000.0,033.0,026.3,11.5,0000.0,0005.92,0001.50,0001.02
2023-12-20 17:47:00,SystemResetWarning,0830.0,5.00,000.00,024.9,024.1,000.0,033.0,026.3,11.8,0000.0,0005.10,0001.54,0001.02
2023-12-20 17:48:00,SystemResetWarning,0830.0,5.02,000.00,024.9,024.2,000.0,033.0,026.3,11.8,0000.0,0004.94,0001.57,0001.03
2023-12-20 17:49:00,SystemResetWarning,0830.0,4.99,000.00,024.9,024.2,000.0,033.0,026.3,11.5,0000.0,0005.02,0001.62,0001.03
2023-12-20 17:50:00,SystemResetWarning,0830.0,4.98,000.00,024.9,024.2,000.0,033.0,026.3,11.5,0000.0,0005.13,0001.63,0001.05
2023-12-20 17:51:00,SystemResetWarning,0830.0,5.01,000.00,024.9,024.2,000.0,033.1,026.3,11.3,0000.0,0005.14,0001.64,0001.06
2023-12-20 17:52:00,SystemResetWarning,0830.0,5.01,000.00,024.9,024.2,000.0,033.1,026.3,11.2,0000.0,0005.03,0001.60,0001.07
2023-12-20 17:53:00,SystemResetWarning,0830.0,4.99,000.00,024.9,024.2,000.0,033.1,026.3,11.2,0000.0,0005.13,0001.64,0001.07
2023-12-20 17:54:00,SystemResetWarning,0830.0,4.99,000.00,024.9,024.2,000.0,033.1,026.4,11.1,0000.0,0005.32,0001.67,0001.09
2023-12-20 17:55:00,SystemResetWarning,0830.0,5.01,000.00,025.0,024.2,000.0,033.1,026.4,11.2,0000.0,0006.30,0001.69,0001.10
2023-12-20 17:56:00,SystemResetWarning,0830.0,5.01,000.00,025.0,024.2,000.0,033.1,026.4,11.4,0000.0,0006.05,0001.70,0001.11
2023-12-20 17:57:00,SystemResetWarning,0830.0,5.00,000.00,025.0,024.2,000.0,033.1,026.4,11.6,0000.0,0005.59,0001.70,0001.12
2023-12-20 17:58:00,SystemResetWarning,0830.0,4.99,000.00,025.0,024.3,000.0,033.1,026.4,11.5,0000.0,0005.64,0001.71,0001.13
2023-12-20 17:59:00,SystemResetWarning,0830.0,4.99,000.00,025.0,024.3,000.0,033.2,026.4,11.7,0000.0,0006.26,0001.69,0001.14
